Aérodrome :
LOGIN :

S'inscrire | Disclaimer

   EN    FR    IT 

 










Légende :    VFR   VFR Marginal   IFR   IFR Intensif   IFR Très Intensif
Visi : 
Plafond : 
>= 8 km
>= 3000ft
5 à 8 km
1000 à 3000 ft
1500m à 5 km
500 à 1000 ft
800 à 1500m
200 à 500 ft
< 800m
< 200 ft
Symboles :   Orages  Brouillard  Fortes neiges  Fortes précipitations  Vent > 20 kt
SIGMETs :   Divers  Orages  Givrage  Turbulence  Onde Orograph.  Cendres Volcan.







- Altitude de l'aérodrome : 39 ft
- Code IATA : CTA


LICC - Catania Fontanarossa

DERNIER METAR :
  • 210950Z 09009KT 9999 FEW040 29/20 Q1013

METARs EXPIRÉS :
  • 210920Z 08009KT 9999 FEW040 29/18 Q1013
  • 210850Z 11008KT CAVOK 29/16 Q1013
  • 210820Z VRB04KT CAVOK 30/16 Q1013
  • 210750Z 26005KT 210V290 CAVOK 29/14 Q1013
  • 210720Z 24006KT 210V270 CAVOK 28/14 Q1012

TAF TAF LICC
Valide du 21 à 06h jusqu'au 22 à 06h UTC


210500Z 2106/2206 VRB05KT CAVOK
BECMG 2109/2111 10013KT
BECMG 2118/2120 VRB05KT
Pas de NOTAMs connus pour ce terrain.



MET'MAP, la Météo Aéronautique d'un coup d'oeil ! - Copyright ORBIFLY Décembre 2007 - Disclaimer

ORBIFLY MET'MAP TEAM :

Programmation & Développement : Alexandra Zaïnal
Conception & Développement : Baudouin d'Aumeries
Co-Programmation & Développement : Marc-Olivier Méhu
Soutien technique & logistique : Manuel Goepfert

Contact : metmap@orbifly.com




SOURCES & CREDITS :

   NOAA